| time (UTC) | temp C | wind direction | speed KPH | gust KPH | rain 1hr cm | rain 24hr cm | rain mn cm | humidity % | barometer mb |
| 20260503050008 | 3 | 157 | 3.2 | 6.4 | 0.00 | 0.00 | 0.00 | 60 | 1011.0 |
| 20260503044613 | 3 | 159 | 3.2 | 4.8 | 0.00 | 0.00 | 0.00 | 63 | 1011.1 |
| 20260503043059 | 3 | 155 | 3.2 | 6.4 | 0.00 | 0.00 | 0.00 | 61 | 1011.3 |
| 20260503041545 | 3 | 115 | 1.6 | 4.8 | 0.00 | 0.00 | 0.00 | 62 | 1011.4 |
| 20260503040041 | 4 | 156 | 1.6 | 6.4 | 0.00 | 0.00 | 0.00 | 61 | 1011.5 |
| 20260503034538 | 4 | 138 | 1.6 | 4.8 | 0.00 | 0.00 | 0.00 | 1011.6 | |
| 20260503033031 | 3 | 144 | 1.6 | 4.8 | 0.00 | 0.00 | 0.00 | 1011.8 | |
| 20260503031530 | 3 | 150 | 1.6 | 4.8 | 0.00 | 0.00 | 0.00 | 60 | 1011.9 |
| 20260503030029 | 3 | 160 | 1.6 | 4.8 | 0.00 | 0.00 | 0.00 | 59 | 1012.0 |
| 20260503024529 | 4 | 177 | 1.6 | 3.2 | 0.00 | 0.00 | 0.00 | 58 | 1012.0 |
| 20260503023029 | 4 | 191 | 1.6 | 3.2 | 0.00 | 0.00 | 0.00 | 57 | 1012.1 |
| 20260503021515 | 4 | 211 | 0.0 | 4.8 | 0.00 | 0.00 | 0.00 | 58 | 1012.2 |
| 20260503020015 | 4 | 225 | 0.0 | 3.2 | 0.00 | 0.00 | 0.00 | 58 | 1012.2 |
| 20260503014522 | 5 | 225 | 0.0 | 1.6 | 0.00 | 0.00 | 0.00 | 55 | 1012.1 |
| 20260503013022 | 5 | 225 | 1.6 | 6.4 | 0.00 | 0.00 | 0.00 | 47 | 1012.0 |
| 20260503011513 | 6 | 236 | 3.2 | 6.4 | 0.00 | 0.00 | 0.00 | 1012.0 | |
| 20260503010011 | 6 | 227 | 4.8 | 9.7 | 0.00 | 0.00 | 0.00 | 44 | 1012.0 |
| 20260503004510 | 7 | 246 | 4.8 | 11.3 | 0.00 | 0.00 | 0.00 | 1012.0 | |
| 20260503003009 | 7 | 263 | 4.8 | 9.7 | 0.00 | 0.00 | 0.00 | 41 | 1011.9 |
| 20260503001600 | 8 | 262 | 4.8 | 16.1 | 0.00 | 0.00 | 0.00 | 40 | 1011.9 |
| 20260503000104 | 8 | 262 | 8.0 | 17.7 | 0.00 | 0.00 | 0.00 | 38 | 1011.9 |
| 20260502234536 | 8 | 275 | 8.0 | 17.7 | 0.00 | 0.00 | 0.00 | 36 | 1011.9 |
| 20260502233043 | 9 | 254 | 11.3 | 19.3 | 0.00 | 0.00 | 0.00 | 35 | 1012.0 |
| 20260502231552 | 8 | 223 | 8.0 | 17.7 | 0.00 | 0.00 | 0.00 | 36 | 1012.0 |
| 20260502230033 | 9 | 303 | 8.0 | 20.9 | 0.00 | 0.00 | 0.00 | 34 | 1012.2 |
| 20260502224532 | 9 | 280 | 9.7 | 20.9 | 0.00 | 0.00 | 0.00 | 35 | 1012.2 |
| 20260502223031 | 9 | 274 | 8.0 | 24.1 | 0.00 | 0.00 | 0.00 | 33 | 1012.3 |
| 20260502221529 | 10 | 281 | 11.3 | 20.9 | 0.00 | 0.00 | 0.00 | 34 | 1012.4 |
| 20260502220035 | 10 | 253 | 14.5 | 25.7 | 0.00 | 0.00 | 0.00 | 34 | 1012.4 |
| 20260502214517 | 9 | 270 | 12.9 | 25.7 | 0.00 | 0.00 | 0.00 | 36 | 1012.5 |
| 20260502213014 | 9 | 283 | 11.3 | 25.7 | 0.00 | 0.00 | 0.00 | 1012.5 | |
| 20260502211521 | 9 | 254 | 14.5 | 29.0 | 0.00 | 0.00 | 0.00 | 37 | 1012.5 |
| 20260502210012 | 10 | 277 | 14.5 | 27.4 | 0.00 | 0.00 | 0.00 | 37 | 1012.6 |
| 20260502204510 | 10 | 275 | 11.3 | 30.6 | 0.00 | 0.00 | 0.00 | 35 | 1012.7 |
| 20260502203009 | 11 | 250 | 14.5 | 30.6 | 0.00 | 0.00 | 0.00 | 35 | 1013.0 |
| 20260502201507 | 10 | 255 | 14.5 | 33.8 | 0.00 | 0.00 | 0.00 | 35 | 1013.1 |
| 20260502200006 | 11 | 265 | 12.9 | 30.6 | 0.00 | 0.00 | 0.00 | 38 | 1013.3 |
| 20260502194556 | 11 | 251 | 9.7 | 24.1 | 0.00 | 0.00 | 0.00 | 35 | 1013.4 |
| 20260502193051 | 11 | 281 | 19.3 | 37.0 | 0.00 | 0.00 | 0.00 | 35 | 1013.4 |
| 20260502191549 | 10 | 259 | 12.9 | 35.4 | 0.00 | 0.00 | 0.00 | 39 | 1013.5 |
| 20260502190050 | -17 | 243 | 12.9 | 35.4 | 0.00 | 0.00 | 0.00 | 38 | 1013.7 |
| 20260502184547 | 11 | 227 | 16.1 | 32.2 | 0.00 | 0.00 | 0.00 | 38 | 1013.9 |
| 20260502183047 | 10 | 292 | 19.3 | 27.4 | 0.00 | 0.00 | 0.00 | 37 | 1013.9 |
| 20260502181544 | 10 | 272 | 9.7 | 27.4 | 0.00 | 0.00 | 0.00 | 42 | 1014.0 |
| 20260502163030 | 8 | 260 | 12.9 | 19.3 | 0.00 | 0.00 | 0.00 | 48 | 1014.8 |
| 20260502161521 | 7 | 264 | 4.8 | 17.7 | 0.00 | 0.00 | 0.00 | 51 | 1015.0 |
| 20260502151553 | 8 | 257 | 8.0 | 20.9 | 0.00 | 0.00 | 0.00 | 42 | 1014.9 |
| 20260502123021 | 3 | 316 | 4.8 | 14.5 | 0.00 | 0.00 | 0.00 | 80 | 1015.3 |
| 20260502121515 | 2 | 349 | 6.4 | 14.5 | 0.00 | 0.00 | 0.00 | 82 | 1015.2 |
| 20260502114515 | 1 | 294 | 0.0 | 0.0 | 0.00 | 0.00 | 0.00 | 81 | 1015.0 |
| 20260502113016 | 1 | 294 | 0.0 | 0.0 | 0.00 | 0.00 | 0.00 | 89 | 1014.9 |
| 20260502111601 | 0 | 294 | 0.0 | 0.0 | 0.00 | 0.00 | 0.00 | 89 | 1014.8 |
| 20260502110057 | -1 | 294 | 0.0 | 0.0 | 0.00 | 0.00 | 0.00 | 87 | 1014.8 |
| 20260502104555 | 0 | 294 | 0.0 | 0.0 | 0.00 | 0.00 | 0.00 | 87 | 1014.8 |
| 20260502103053 | 0 | 294 | 0.0 | 3.2 | 0.00 | 0.00 | 0.00 | 87 | 1014.8 |
| 20260502101554 | 0 | 294 | 0.0 | 1.6 | 0.00 | 0.00 | 0.00 | 85 | 1014.7 |
| 20260502100104 | 0 | 290 | 0.0 | 1.6 | 0.00 | 0.00 | 0.00 | 82 | 1014.6 |
| 20260502070009 | 1 | 285 | 3.2 | 4.8 | 0.00 | 0.00 | 0.00 | 78 | 1014.1 |
| 20260502064512 | 1 | 285 | 1.6 | 3.2 | 0.00 | 0.00 | 0.00 | 77 | 1014.1 |
| 20260502063007 | 1 | 277 | 0.0 | 3.2 | 0.00 | 0.00 | 0.00 | 77 | 1014.2 |
| 20260502061506 | 1 | 277 | 1.6 | 4.8 | 0.00 | 0.00 | 0.00 | 75 | 1014.3 |
| 20260502060004 | 1 | 284 | 1.6 | 4.8 | 0.00 | 0.00 | 0.00 | 74 | 1014.4 |
| 20260502054505 | 1 | 294 | 3.2 | 4.8 | 0.00 | 0.00 | 0.00 | 72 | 1014.3 |
| 20260502053101 | 1 | 298 | 1.6 | 4.8 | 0.00 | 0.00 | 0.00 | 71 | 1014.3 |
| 20260502053001 | -17 | 298 | 1.6 | 4.8 | 0.00 | 0.00 | 0.00 | 71 | 1014.3 |
| 20260502051702 | 1 | 315 | 0.0 | 3.2 | 0.00 | 0.00 | 0.00 | 72 | 1014.3 |